Location: Eaton
(41.3139°N, 82.0207°W)
Time: 16:50:46
(UTC+00:00)

MSX - Pass Details

Date: 17 June 2021
Orbit: 894 x 907 km, 98.8° (Epoch: 02 August)

Event Time Altitude Azimuth Distance (km) Brightness Sun altitude
Rises 08:55:42 0° 9° (N) 3,538 7.8 -9.5°
Reaches altitude 10° 08:58:10 10° 5° (N) 2,591 7.0 -9.2°
Maximum altitude 09:03:46 54° 289° (WNW) 1,085 4.1 -8.4°
Drops below altitude 10° 09:09:19 10° 214° (SW) 2,567 5.6 -7.6°
Enters shadow 09:09:51 - 213° (SSW) 2,770 5.8 -7.6°
